Zurück zum Katalog

STARLINK-37614

AktivKommunikationSSO
NORAD 69041·PAYLOAD·🇺🇸 United States

Gestartet May 6, 2026 von Vandenberg Space Force Base

Loading…

Nächste Überflüge (nächste 24 Stunden)

TLE

AktuellSource: CelesTrak SupGP

Epoche: Sep 15, 2026, 03:26 UTC

1 69041C 26101S   26258.14354167 -.00024572  00000+0 -76260-3 0  2587
2 69041  97.2851 111.6778 0002290  95.3403 359.4303 15.33457068    12

Verfolge STARLINK-37614 in Echtzeit mit AllMySat

Download on the App Store